Find Starlink 32561

NORAD ID: 62026 Int'l Des: 2024-213 Owner: SPXS Country: US Constellation: starlink operational
LEOCIRCULAR

現在のビュー

3D地球を読み込み中...

About Starlink 32561

Starlink 32561 (NORAD 62026) is a starlink constellation satellite (v2 mini) launched Nov 18, 2024 by SPXS of US. It operates in LEO, CIRCULAR orbit with a mass of 730.00 kg.

Starlink 32561について

説明を読み込み中...

次回通過

Passes for default location (London). Set your location on the main map for personalized predictions.

高度履歴

Loading altitude history...

軌道要素

1 62026U 24213U 26196.63003697 .00007771 00000-0 27419-3 0 9994
2 62026 53.1588 293.8159 0000745 3.8644 356.2362 15.30200821 92747
Epoch: Jul 15, 2026 • Age: 11 hours

現在のステータス

高度 481.3 km
遠地点 / 近地点 N/A
速度 7.63 km/s
衛星直下点 51.78°N, 32.29°E
打ち上げ日 Nov 18, 2024
運用期間 1.6 years
タイプ internet

技術仕様

分類 Payload
質量 730.00 kg
乾燥質量 700.00 kg
総質量 730.00 kg
長さ 0.30 m
直径 4.10 m
スパン 29.00 m
形状 Box + pan
製造者 SPXS
バスタイプ Starlink V2M
フェーズステータス In Orbit
所有者/国 SPXS/US

Most Searched